Time,TemperatureF,DewpointF,PressureIn,WindDirection,WindDirectionDegrees,WindSpeedMPH,WindSpeedGustMPH,Humidity,HourlyPrecipIn,Conditions,Clouds,dailyrainin,SoftwareType,DateUTC
2013-03-29 00:04:00,56.8,47.2,30.03,SW,222,0.0,0.0,70,0.00,,FEW010,0.00,VWS V14.01,2013-03-29 07:04:00,
2013-03-29 00:09:00,56.8,47.2,30.03,SW,222,0.0,0.0,70,0.00,,FEW010,0.00,VWS V14.01,2013-03-29 07:09:00,
2013-03-29 00:14:00,56.6,47.0,30.03,SW,222,0.0,0.0,70,0.00,,FEW010,0.00,VWS V14.01,2013-03-29 07:14:00,
2013-03-29 00:20:00,56.5,46.8,30.03,SW,222,0.0,0.0,70,0.00,,FEW010,0.00,VWS V14.01,2013-03-29 07:20:00,
2013-03-29 00:25:00,56.3,46.6,30.03,SW,222,0.0,0.0,70,0.00,,FEW010,0.00,VWS V14.01,2013-03-29 07:25:00,
2013-03-29 00:32:00,56.1,46.5,30.03,SW,222,0.0,0.0,70,0.00,,FEW010,0.00,VWS V14.01,2013-03-29 07:32:00,
2013-03-29 00:37:00,55.9,46.3,30.03,SW,222,0.0,0.0,70,0.00,,CLR,0.00,VWS V14.01,2013-03-29 07:37:00,
2013-03-29 00:42:00,55.9,46.7,30.03,SW,222,0.0,0.0,71,0.00,,CLR,0.00,VWS V14.01,2013-03-29 07:42:00,
2013-03-29 00:48:00,55.9,46.7,30.03,SW,222,0.0,0.0,71,0.00,,CLR,0.00,VWS V14.01,2013-03-29 07:48:00,
2013-03-29 00:53:00,55.7,46.5,30.00,SW,222,0.0,0.0,71,0.00,,CLR,0.00,VWS V14.01,2013-03-29 07:53:00,
2013-03-29 00:59:00,55.7,46.5,30.00,SW,222,0.0,0.0,71,0.00,,CLR,0.00,VWS V14.01,2013-03-29 07:59:00,
2013-03-29 01:05:00,55.6,46.3,30.03,SW,222,0.0,0.0,71,0.00,,CLR,0.00,VWS V14.01,2013-03-29 08:05:00,
2013-03-29 01:10:00,55.6,46.3,30.03,SW,222,0.0,0.0,71,0.00,,CLR,0.00,VWS V14.01,2013-03-29 08:10:00,
2013-03-29 01:16:00,55.4,46.2,30.03,SW,222,0.0,0.0,71,0.00,,CLR,0.00,VWS V14.01,2013-03-29 08:16:00,
2013-03-29 01:21:00,55.4,46.2,30.03,SW,222,0.0,0.0,71,0.00,,CLR,0.00,VWS V14.01,2013-03-29 08:21:00,
2013-03-29 01:26:00,55.4,46.2,30.03,SW,222,0.0,0.0,71,0.00,,CLR,0.00,VWS V14.01,2013-03-29 08:26:00,
2013-03-29 01:31:00,55.4,46.2,30.03,SW,222,0.0,0.0,71,0.00,,CLR,0.00,VWS V14.01,2013-03-29 08:31:00,
2013-03-29 01:36:00,55.4,46.2,30.03,SW,222,0.0,0.0,71,0.00,,BKN009,0.00,VWS V14.01,2013-03-29 08:36:00,
2013-03-29 01:41:00,55.6,46.3,30.03,SW,222,0.0,0.0,71,0.00,,BKN009,0.00,VWS V14.01,2013-03-29 08:41:00,
2013-03-29 01:47:00,55.4,46.2,30.03,SW,222,0.0,0.0,71,0.00,,BKN009,0.00,VWS V14.01,2013-03-29 08:47:00,
2013-03-29 01:53:00,55.4,46.2,30.03,SW,222,0.0,0.0,71,0.00,,BKN009,0.00,VWS V14.01,2013-03-29 08:53:00,
2013-03-29 01:59:00,55.2,46.0,30.03,SW,222,0.0,0.0,71,0.00,,BKN009,0.00,VWS V14.01,2013-03-29 08:59:00,
2013-03-29 02:05:00,55.0,45.8,30.03,SW,222,0.0,0.0,71,0.00,,BKN009,0.00,VWS V14.01,2013-03-29 09:05:00,
2013-03-29 02:10:00,54.8,45.6,30.03,ENE,78,0.0,0.0,71,0.00,,BKN009,0.00,VWS V14.01,2013-03-29 09:10:00,
2013-03-29 02:16:00,54.8,46.0,30.03,ENE,78,0.0,0.0,72,0.00,,BKN009,0.00,VWS V14.01,2013-03-29 09:16:00,
2013-03-29 02:22:00,54.7,45.8,30.03,ENE,78,0.0,0.0,72,0.00,,BKN009,0.00,VWS V14.01,2013-03-29 09:22:00,
2013-03-29 02:28:00,54.5,45.7,30.03,ENE,78,0.0,0.0,72,0.00,,BKN009,0.00,VWS V14.01,2013-03-29 09:28:00,
2013-03-29 02:34:00,54.5,45.7,30.03,ENE,78,0.0,0.0,72,0.00,,BKN009,0.00,VWS V14.01,2013-03-29 09:34:00,
2013-03-29 02:40:00,54.5,45.7,30.03,ENE,78,0.0,0.0,72,0.00,,SCT009,0.00,VWS V14.01,2013-03-29 09:40:00,
2013-03-29 02:45:00,54.5,45.7,30.03,ENE,78,0.0,0.0,72,0.00,,SCT009,0.00,VWS V14.01,2013-03-29 09:45:00,
2013-03-29 02:51:00,54.5,45.7,30.03,ENE,78,0.0,0.0,72,0.00,,BKN010,0.00,VWS V14.01,2013-03-29 09:51:00,
2013-03-29 02:57:00,54.5,45.7,30.03,ENE,78,0.0,0.0,72,0.00,,BKN010,0.00,VWS V14.01,2013-03-29 09:57:00,
2013-03-29 03:02:00,54.7,45.8,30.03,ENE,78,0.0,0.0,72,0.00,,BKN010,0.00,VWS V14.01,2013-03-29 10:02:00,
2013-03-29 03:08:00,54.7,45.8,30.03,ENE,78,0.0,0.0,72,0.00,,BKN010,0.00,VWS V14.01,2013-03-29 10:08:00,
2013-03-29 03:13:00,55.0,46.5,30.03,ENE,58,2.7,2.7,73,0.00,,BKN010,0.00,VWS V14.01,2013-03-29 10:13:00,
2013-03-29 03:19:00,55.4,46.5,30.03,ENE,58,0.0,2.7,72,0.00,,BKN010,0.00,VWS V14.01,2013-03-29 10:19:00,
2013-03-29 03:24:00,56.1,47.9,30.03,ENE,58,0.0,0.0,74,0.00,,BKN010,0.00,VWS V14.01,2013-03-29 10:24:00,
2013-03-29 03:30:00,56.3,48.8,30.03,ENE,57,0.0,0.0,76,0.00,,BKN010,0.00,VWS V14.01,2013-03-29 10:30:00,
2013-03-29 03:36:00,56.5,49.0,30.03,ENE,58,0.0,0.0,76,0.00,,OVC008,0.00,VWS V14.01,2013-03-29 10:36:00,
2013-03-29 03:41:00,56.5,49.0,30.03,ENE,58,0.0,0.0,76,0.00,,OVC008,0.00,VWS V14.01,2013-03-29 10:41:00,
2013-03-29 03:46:00,56.6,49.5,30.03,ENE,57,0.0,0.0,77,0.00,,OVC008,0.00,VWS V14.01,2013-03-29 10:46:00,
2013-03-29 03:52:00,56.8,49.7,30.00,ENE,57,0.0,0.0,77,0.00,,OVC008,0.00,VWS V14.01,2013-03-29 10:52:00,
2013-03-29 03:58:00,57.4,50.9,30.00,SE,137,3.1,3.1,79,0.00,,OVC008,0.00,VWS V14.01,2013-03-29 10:58:00,
2013-03-29 04:04:00,57.4,51.2,30.00,SE,139,0.0,0.0,80,0.00,,OVC008,0.00,VWS V14.01,2013-03-29 11:04:00,
2013-03-29 04:09:00,57.5,51.4,30.00,SE,139,4.0,4.0,80,0.00,,OVC008,0.00,VWS V14.01,2013-03-29 11:09:00,
2013-03-29 04:15:00,57.7,51.6,30.00,SE,136,3.1,5.4,80,0.00,,OVC008,0.00,VWS V14.01,2013-03-29 11:15:00,
2013-03-29 04:21:00,57.7,51.6,30.03,SE,137,5.4,5.4,80,0.00,,OVC008,0.00,VWS V14.01,2013-03-29 11:21:00,
2013-03-29 04:26:00,57.7,51.6,30.03,SE,136,4.0,4.0,80,0.00,,OVC008,0.00,VWS V14.01,2013-03-29 11:26:00,
2013-03-29 04:31:00,57.7,51.3,30.03,SE,139,3.1,4.0,79,0.00,,OVC008,0.00,VWS V14.01,2013-03-29 11:31:00,
2013-03-29 04:36:00,57.7,51.3,30.00,East,88,2.7,3.6,79,0.00,,,0.00,VWS V14.01,2013-03-29 11:36:00,
2013-03-29 04:42:00,57.9,51.4,30.00,ENE,76,2.2,3.1,79,0.00,,,0.00,VWS V14.01,2013-03-29 11:42:00,
2013-03-29 04:47:00,57.9,51.4,30.00,ENE,73,0.0,2.7,79,0.00,,,0.00,VWS V14.01,2013-03-29 11:47:00,
2013-03-29 04:53:00,57.9,51.4,30.00,SE,124,0.0,0.0,79,0.00,,,0.00,VWS V14.01,2013-03-29 11:53:00,
2013-03-29 04:58:00,57.9,51.4,30.00,SSE,147,0.0,4.9,79,0.00,,,0.00,VWS V14.01,2013-03-29 11:58:00,
2013-03-29 05:04:00,58.1,51.3,30.03,SE,138,0.0,3.1,78,0.00,,,0.00,VWS V14.01,2013-03-29 12:04:00,
2013-03-29 05:09:00,58.1,51.3,30.03,SE,138,4.0,4.0,78,0.00,,,0.00,VWS V14.01,2013-03-29 12:09:00,
2013-03-29 05:15:00,58.1,50.9,30.03,SE,142,4.0,4.0,77,0.00,,,0.00,VWS V14.01,2013-03-29 12:15:00,
2013-03-29 05:20:00,58.3,51.1,30.03,South,183,3.1,3.1,77,0.00,,,0.00,VWS V14.01,2013-03-29 12:20:00,
2013-03-29 05:25:00,58.3,51.1,30.03,SE,137,3.6,4.0,77,0.00,,,0.00,VWS V14.01,2013-03-29 12:25:00,
2013-03-29 05:31:00,58.3,51.1,30.03,WSW,244,4.9,4.9,77,0.00,,,0.00,VWS V14.01,2013-03-29 12:31:00,
2013-03-29 05:36:00,58.3,51.1,30.03,SSW,200,0.0,0.0,77,0.00,,,0.00,VWS V14.01,2013-03-29 12:36:00,
2013-03-29 05:42:00,58.3,51.1,30.03,WSW,253,0.0,3.1,77,0.00,,,0.00,VWS V14.01,2013-03-29 12:42:00,
2013-03-29 05:47:00,58.3,51.1,30.03,WSW,254,0.0,0.0,77,0.00,,,0.00,VWS V14.01,2013-03-29 12:47:00,
2013-03-29 05:53:00,58.3,51.1,30.03,WSW,254,0.0,0.0,77,0.00,,,0.00,VWS V14.01,2013-03-29 12:53:00,
2013-03-29 05:58:00,58.3,51.1,30.03,WSW,254,0.0,0.0,77,0.00,,,0.00,VWS V14.01,2013-03-29 12:58:00,
2013-03-29 06:04:00,58.3,51.1,30.03,WSW,252,0.0,0.0,77,0.00,,,0.00,VWS V14.01,2013-03-29 13:04:00,
2013-03-29 06:10:00,58.3,51.1,30.03,WSW,252,0.0,0.0,77,0.00,,,0.00,VWS V14.01,2013-03-29 13:10:00,
2013-03-29 06:15:00,58.3,51.1,30.03,WSW,252,0.0,0.0,77,0.00,,,0.00,VWS V14.01,2013-03-29 13:15:00,
2013-03-29 06:22:00,58.4,51.3,30.03,SSW,194,0.0,0.0,77,0.00,,,0.00,VWS V14.01,2013-03-29 13:22:00,
2013-03-29 06:28:00,58.3,51.1,30.03,SSW,194,0.0,0.0,77,0.00,,,0.00,VWS V14.01,2013-03-29 13:28:00,
2013-03-29 06:34:00,58.3,50.7,30.03,SSW,194,2.2,2.2,76,0.00,,,0.00,VWS V14.01,2013-03-29 13:34:00,
2013-03-29 06:39:00,58.3,50.7,30.03,SSW,194,0.0,0.0,76,0.00,,OVC008,0.00,VWS V14.01,2013-03-29 13:39:00,
2013-03-29 06:44:00,58.3,50.7,30.03,SSW,194,0.0,0.0,76,0.00,,OVC008,0.00,VWS V14.01,2013-03-29 13:44:00,
2013-03-29 06:50:00,58.1,50.6,30.03,SSW,194,0.0,0.0,76,0.00,,OVC008,0.00,VWS V14.01,2013-03-29 13:50:00,
2013-03-29 06:56:00,58.3,50.7,30.03,SSW,194,0.0,0.0,76,0.00,,OVC008,0.00,VWS V14.01,2013-03-29 13:56:00,
2013-03-29 07:02:00,58.3,50.7,30.03,SSW,194,0.0,0.0,76,0.00,,OVC008,0.00,VWS V14.01,2013-03-29 14:02:00,
2013-03-29 07:07:00,58.1,50.2,30.06,SE,127,3.6,3.6,75,0.00,,OVC008,0.00,VWS V14.01,2013-03-29 14:07:00,
2013-03-29 07:13:00,58.1,49.8,30.06,ESE,122,0.0,0.0,74,0.00,,OVC008,0.00,VWS V14.01,2013-03-29 14:13:00,
2013-03-29 07:18:00,58.3,50.0,30.06,ESE,121,0.0,0.0,74,0.00,,OVC008,0.00,VWS V14.01,2013-03-29 14:18:00,
2013-03-29 07:24:00,58.3,50.0,30.06,ESE,121,0.0,0.0,74,0.00,,OVC008,0.00,VWS V14.01,2013-03-29 14:24:00,
2013-03-29 07:29:00,58.1,49.8,30.06,SE,130,2.7,3.6,74,0.00,,OVC008,0.00,VWS V14.01,2013-03-29 14:29:00,
2013-03-29 07:34:00,58.3,49.7,30.06,SE,130,3.6,3.6,73,0.00,,OVC008,0.00,VWS V14.01,2013-03-29 14:34:00,
2013-03-29 07:39:00,58.3,49.7,30.06,South,182,2.2,3.1,73,0.00,,,0.00,VWS V14.01,2013-03-29 14:39:00,
2013-03-29 07:44:00,58.3,49.7,30.06,South,191,2.2,3.1,73,0.00,,,0.00,VWS V14.01,2013-03-29 14:44:00,
2013-03-29 07:49:00,58.3,49.7,30.06,WSW,245,3.6,3.6,73,0.00,,,0.00,VWS V14.01,2013-03-29 14:49:00,
2013-03-29 07:55:00,58.3,49.7,30.06,WSW,254,0.0,0.0,73,0.00,,,0.00,VWS V14.01,2013-03-29 14:55:00,
2013-03-29 08:00:00,58.4,49.5,30.06,WSW,255,0.0,0.0,72,0.00,,,0.00,VWS V14.01,2013-03-29 15:00:00,
2013-03-29 08:05:00,58.4,49.5,30.06,North,11,2.7,3.1,72,0.00,,,0.00,VWS V14.01,2013-03-29 15:05:00,
2013-03-29 08:10:00,58.4,49.5,30.06,North,357,0.0,0.0,72,0.00,,,0.00,VWS V14.01,2013-03-29 15:10:00,
2013-03-29 08:16:00,58.6,49.6,30.06,NNW,335,0.0,0.0,72,0.00,,,0.00,VWS V14.01,2013-03-29 15:16:00,
2013-03-29 08:21:00,58.8,49.4,30.06,NNW,335,0.0,0.0,71,0.00,,,0.00,VWS V14.01,2013-03-29 15:21:00,
2013-03-29 08:26:00,59.0,49.6,30.06,NNW,335,0.0,0.0,71,0.00,,,0.00,VWS V14.01,2013-03-29 15:26:00,
2013-03-29 08:31:00,59.0,49.6,30.06,NE,54,3.1,3.1,71,0.00,,,0.00,VWS V14.01,2013-03-29 15:31:00,
2013-03-29 08:36:00,59.3,50.0,30.06,ENE,66,0.0,0.0,71,0.00,,,0.00,VWS V14.01,2013-03-29 15:36:00,
2013-03-29 08:41:00,59.3,50.0,30.06,NNE,30,5.4,5.4,71,0.00,,,0.00,VWS V14.01,2013-03-29 15:41:00,
2013-03-29 08:47:00,59.5,50.1,30.06,NNE,23,4.0,4.9,71,0.00,,,0.00,VWS V14.01,2013-03-29 15:47:00,
2013-03-29 08:52:00,59.7,50.3,30.06,NNW,348,4.0,4.0,71,0.00,,,0.00,VWS V14.01,2013-03-29 15:52:00,
2013-03-29 08:57:00,59.9,50.1,30.06,NNW,348,0.0,0.0,70,0.00,,,0.00,VWS V14.01,2013-03-29 15:57:00,
2013-03-29 09:02:00,60.2,50.4,30.06,NNE,21,3.1,3.1,70,0.00,,,0.00,VWS V14.01,2013-03-29 16:02:00,
2013-03-29 09:07:00,60.4,50.2,30.06,ENE,75,0.0,3.1,69,0.00,,,0.00,VWS V14.01,2013-03-29 16:07:00,
2013-03-29 09:13:00,61.0,50.3,30.06,NNW,348,2.7,4.0,68,0.00,,,0.00,VWS V14.01,2013-03-29 16:13:00,
2013-03-29 09:19:00,60.8,49.0,30.06,NE,34,3.1,5.4,65,0.00,,,0.00,VWS V14.01,2013-03-29 16:19:00,
2013-03-29 09:24:00,61.3,49.0,30.06,NW,326,3.1,4.0,64,0.00,,,0.00,VWS V14.01,2013-03-29 16:24:00,
2013-03-29 09:30:00,62.4,50.1,30.06,East,93,0.0,0.0,64,0.00,,,0.00,VWS V14.01,2013-03-29 16:30:00,
2013-03-29 09:35:00,62.4,47.0,30.06,North,357,0.0,3.6,57,0.00,,,0.00,VWS V14.01,2013-03-29 16:35:00,
2013-03-29 09:42:00,63.1,44.7,30.06,East,99,0.0,0.0,51,0.00,,,0.00,VWS V14.01,2013-03-29 16:42:00,
2013-03-29 09:48:00,64.2,43.6,30.06,SE,131,0.0,0.0,47,0.00,,,0.00,VWS V14.01,2013-03-29 16:48:00,
2013-03-29 09:54:00,64.7,43.5,30.06,ENE,75,3.6,3.6,46,0.00,,,0.00,VWS V14.01,2013-03-29 16:54:00,
2013-03-29 09:59:00,65.8,43.9,30.06,North,0,0.0,0.0,45,0.00,,,0.00,VWS V14.01,2013-03-29 16:59:00,
2013-03-29 10:04:00,66.5,44.0,30.06,North,9,0.0,2.7,44,0.00,,,0.00,VWS V14.01,2013-03-29 17:04:00,
2013-03-29 10:09:00,66.7,41.7,30.06,North,353,5.4,5.4,40,0.00,,,0.00,VWS V14.01,2013-03-29 17:09:00,
2013-03-29 10:15:00,67.1,42.0,30.06,NE,38,3.6,4.0,40,0.00,,,0.00,VWS V14.01,2013-03-29 17:15:00,
2013-03-29 10:20:00,68.0,41.5,30.06,NNE,30,4.0,5.4,38,0.00,,,0.00,VWS V14.01,2013-03-29 17:20:00,
2013-03-29 10:25:00,68.5,41.2,30.06,NE,39,0.0,0.0,37,0.00,,,0.00,VWS V14.01,2013-03-29 17:25:00,
2013-03-29 10:30:00,69.1,40.3,30.06,SW,221,3.1,4.0,35,0.00,,,0.00,VWS V14.01,2013-03-29 17:30:00,
2013-03-29 10:35:00,68.7,40.0,30.06,SW,227,4.0,4.0,35,0.00,,,0.00,VWS V14.01,2013-03-29 17:35:00,
2013-03-29 10:40:00,69.4,40.6,30.06,SW,230,0.0,0.0,35,0.00,,,0.00,VWS V14.01,2013-03-29 17:40:00,
2013-03-29 10:46:00,68.9,39.4,30.06,West,269,4.9,8.3,34,0.00,,,0.00,VWS V14.01,2013-03-29 17:46:00,
2013-03-29 10:51:00,69.1,39.5,30.06,NW,307,0.0,2.7,34,0.00,,,0.00,VWS V14.01,2013-03-29 17:51:00,
2013-03-29 10:57:00,70.3,39.9,30.06,SSW,196,3.6,3.6,33,0.00,,,0.00,VWS V14.01,2013-03-29 17:57:00,
2013-03-29 11:02:00,71.2,39.9,30.06,WNW,284,3.1,3.6,32,0.00,,,0.00,VWS V14.01,2013-03-29 18:02:00,
2013-03-29 11:08:00,70.3,39.9,30.06,WNW,293,5.8,5.8,33,0.00,,,0.00,VWS V14.01,2013-03-29 18:08:00,
2013-03-29 11:14:00,70.5,39.2,30.06,WSW,244,2.7,4.0,32,0.00,,,0.00,VWS V14.01,2013-03-29 18:14:00,
2013-03-29 11:19:00,71.4,40.0,30.06,SSW,196,4.9,6.3,32,0.00,,,0.00,VWS V14.01,2013-03-29 18:19:00,
2013-03-29 11:25:00,71.8,40.3,30.06,SSE,157,4.9,5.8,32,0.00,,,0.00,VWS V14.01,2013-03-29 18:25:00,
2013-03-29 11:30:00,71.6,40.2,30.06,SSW,196,3.1,6.3,32,0.00,,,0.00,VWS V14.01,2013-03-29 18:30:00,
2013-03-29 11:36:00,71.8,40.3,30.06,SSW,203,5.4,6.3,32,0.00,,,0.00,VWS V14.01,2013-03-29 18:36:00,
2013-03-29 11:41:00,69.1,39.5,30.06,SW,216,4.0,7.6,34,0.00,,,0.00,VWS V14.01,2013-03-29 18:41:00,
2013-03-29 11:47:00,69.2,39.7,30.06,SW,235,6.3,6.3,34,0.00,,,0.00,VWS V14.01,2013-03-29 18:47:00,
2013-03-29 11:53:00,70.3,40.7,30.06,South,186,5.4,6.3,34,0.00,,,0.00,VWS V14.01,2013-03-29 18:53:00,
2013-03-29 11:58:00,70.1,40.5,30.06,SSW,210,5.8,5.8,34,0.00,,,0.00,VWS V14.01,2013-03-29 18:58:00,
2013-03-29 12:04:00,70.7,40.2,30.06,SSW,212,3.1,6.3,33,0.00,,,0.00,VWS V14.01,2013-03-29 19:04:00,
2013-03-29 12:09:00,71.0,39.7,30.06,SSE,152,3.1,4.9,32,0.00,,,0.00,VWS V14.01,2013-03-29 19:09:00,
2013-03-29 12:14:00,71.6,40.2,30.06,SSW,196,3.1,4.0,32,0.00,,,0.00,VWS V14.01,2013-03-29 19:14:00,
2013-03-29 12:19:00,72.1,40.7,30.06,SW,226,5.8,5.8,32,0.00,,,0.00,VWS V14.01,2013-03-29 19:19:00,
2013-03-29 12:24:00,72.5,41.0,30.06,WNW,299,4.0,6.3,32,0.00,,,0.00,VWS V14.01,2013-03-29 19:24:00,
2013-03-29 12:30:00,73.0,40.6,30.06,SE,140,4.0,5.8,31,0.00,,,0.00,VWS V14.01,2013-03-29 19:30:00,
2013-03-29 12:37:00,72.3,40.0,30.06,WSW,244,5.8,6.3,31,0.00,,,0.00,VWS V14.01,2013-03-29 19:37:00,
2013-03-29 12:43:00,71.6,40.2,30.06,SE,126,3.6,4.9,32,0.00,,,0.00,VWS V14.01,2013-03-29 19:43:00,
2013-03-29 12:49:00,71.8,40.3,30.03,South,191,2.7,5.8,32,0.00,,,0.00,VWS V14.01,2013-03-29 19:49:00,
2013-03-29 12:55:00,71.6,40.2,30.03,SSW,204,7.6,7.6,32,0.00,,,0.00,VWS V14.01,2013-03-29 19:55:00,
2013-03-29 13:00:00,70.9,39.6,30.03,SSE,168,8.3,10.5,32,0.00,,,0.00,VWS V14.01,2013-03-29 20:00:00,
2013-03-29 13:05:00,71.4,40.8,30.03,SE,140,8.3,8.3,33,0.00,,,0.00,VWS V14.01,2013-03-29 20:05:00,
2013-03-29 13:11:00,71.0,40.5,30.03,SSW,201,5.8,7.6,33,0.00,,,0.00,VWS V14.01,2013-03-29 20:11:00,
2013-03-29 13:17:00,70.7,40.2,30.03,SSW,204,7.6,7.6,33,0.00,,,0.00,VWS V14.01,2013-03-29 20:17:00,
2013-03-29 13:22:00,70.5,40.0,30.03,South,188,6.3,6.3,33,0.00,,,0.00,VWS V14.01,2013-03-29 20:22:00,
2013-03-29 13:28:00,70.7,39.4,30.03,SE,124,6.3,7.6,32,0.00,,,0.00,VWS V14.01,2013-03-29 20:28:00,
2013-03-29 13:33:00,71.2,40.7,30.03,South,189,6.7,7.2,33,0.00,,,0.00,VWS V14.01,2013-03-29 20:33:00,
2013-03-29 13:38:00,70.7,40.2,30.03,SE,127,5.4,7.6,33,0.00,,,0.00,VWS V14.01,2013-03-29 20:38:00,
2013-03-29 13:43:00,71.4,40.0,30.03,SSW,203,4.0,5.8,32,0.00,,,0.00,VWS V14.01,2013-03-29 20:43:00,
2013-03-29 13:49:00,71.2,39.9,30.03,SSW,201,6.3,6.3,32,0.00,,,0.00,VWS V14.01,2013-03-29 20:49:00,
2013-03-29 13:54:00,71.0,39.7,30.03,South,177,5.4,5.4,32,0.00,,,0.00,VWS V14.01,2013-03-29 20:54:00,
2013-03-29 13:59:00,70.9,39.6,30.03,SE,141,5.4,8.3,32,0.00,,,0.00,VWS V14.01,2013-03-29 20:59:00,
2013-03-29 14:04:00,70.5,40.0,30.03,South,187,4.0,6.3,33,0.00,,,0.00,VWS V14.01,2013-03-29 21:04:00,
2013-03-29 14:10:00,70.9,39.6,30.03,South,175,4.9,7.6,32,0.00,,,0.00,VWS V14.01,2013-03-29 21:10:00,
2013-03-29 14:15:00,70.5,39.2,30.03,South,190,7.6,7.6,32,0.00,,,0.00,VWS V14.01,2013-03-29 21:15:00,
2013-03-29 14:20:00,70.1,39.7,30.00,SSE,151,6.3,8.1,33,0.00,,,0.00,VWS V14.01,2013-03-29 21:20:00,
2013-03-29 14:26:00,69.4,39.1,30.00,SSW,207,5.8,6.3,33,0.00,,,0.00,VWS V14.01,2013-03-29 21:26:00,
2013-03-29 14:31:00,68.9,39.4,30.00,SE,138,7.6,8.7,34,0.00,,,0.00,VWS V14.01,2013-03-29 21:31:00,
2013-03-29 14:37:00,68.7,39.2,30.00,South,174,7.6,8.7,34,0.00,,,0.00,VWS V14.01,2013-03-29 21:37:00,
2013-03-29 14:42:00,68.2,39.5,30.00,South,190,6.3,7.6,35,0.00,,,0.00,VWS V14.01,2013-03-29 21:42:00,
2013-03-29 14:48:00,69.1,40.3,30.00,SSW,192,2.7,6.3,35,0.00,,,0.00,VWS V14.01,2013-03-29 21:48:00,
2013-03-29 14:53:00,69.1,39.5,30.00,South,180,7.6,7.6,34,0.00,,,0.00,VWS V14.01,2013-03-29 21:53:00,
2013-03-29 14:58:00,69.1,39.5,30.00,SSE,168,5.8,6.3,34,0.00,,,0.00,VWS V14.01,2013-03-29 21:58:00,
2013-03-29 15:03:00,69.6,40.0,30.00,SSE,162,3.6,7.2,34,0.00,,,0.00,VWS V14.01,2013-03-29 22:03:00,
2013-03-29 15:08:00,68.7,40.7,30.00,South,173,8.3,8.3,36,0.00,,,0.00,VWS V14.01,2013-03-29 22:08:00,
2013-03-29 15:14:00,71.2,40.7,30.00,SSE,153,4.0,5.8,33,0.00,,,0.00,VWS V14.01,2013-03-29 22:14:00,
2013-03-29 15:20:00,71.9,40.5,30.00,SSW,204,4.9,5.4,32,0.00,,,0.00,VWS V14.01,2013-03-29 22:20:00,
2013-03-29 15:25:00,72.7,40.3,30.00,SSW,206,3.1,5.8,31,0.00,,,0.00,VWS V14.01,2013-03-29 22:25:00,
2013-03-29 15:31:00,74.1,40.7,30.00,SE,144,3.1,4.9,30,0.00,,,0.00,VWS V14.01,2013-03-29 22:31:00,
2013-03-29 15:36:00,74.8,39.6,30.00,WSW,258,5.4,5.4,28,0.00,,BKN200,0.00,VWS V14.01,2013-03-29 22:36:00,
2013-03-29 15:42:00,71.9,37.1,30.00,West,260,8.1,8.1,28,0.00,,BKN200,0.00,VWS V14.01,2013-03-29 22:42:00,
2013-03-29 15:47:00,73.4,38.3,30.00,NNW,328,5.8,8.7,28,0.00,,BKN200,0.00,VWS V14.01,2013-03-29 22:47:00,
2013-03-29 15:52:00,74.5,38.3,30.00,NNW,333,4.0,5.8,27,0.00,,BKN200,0.00,VWS V14.01,2013-03-29 22:52:00,
2013-03-29 15:58:00,74.6,37.5,30.00,NW,310,3.1,5.4,26,0.00,,BKN200,0.00,VWS V14.01,2013-03-29 22:58:00,
2013-03-29 16:03:00,74.6,36.5,30.00,West,259,5.8,5.8,25,0.00,,BKN200,0.00,VWS V14.01,2013-03-29 23:03:00,
2013-03-29 16:09:00,74.8,36.7,30.00,North,353,4.9,5.8,25,0.00,,BKN200,0.00,VWS V14.01,2013-03-29 23:09:00,
2013-03-29 16:14:00,75.9,36.5,30.00,North,0,3.1,4.9,24,0.00,,BKN200,0.00,VWS V14.01,2013-03-29 23:14:00,
2013-03-29 16:19:00,73.4,33.4,29.97,West,270,6.3,8.1,23,0.00,,BKN200,0.00,VWS V14.01,2013-03-29 23:19:00,
2013-03-29 16:24:00,73.4,35.5,29.97,WNW,285,5.4,5.4,25,0.00,,BKN200,0.00,VWS V14.01,2013-03-29 23:24:00,
2013-03-29 16:29:00,73.7,35.8,29.97,NW,305,6.3,7.6,25,0.00,,BKN200,0.00,VWS V14.01,2013-03-29 23:29:00,
2013-03-29 16:35:00,73.9,35.9,29.97,North,353,2.7,3.6,25,0.00,,BKN200,0.00,VWS V14.01,2013-03-29 23:35:00,
2013-03-29 16:41:00,74.1,36.1,29.97,NNW,342,3.6,5.4,25,0.00,,BKN200,0.00,VWS V14.01,2013-03-29 23:41:00,
2013-03-29 16:47:00,73.7,35.8,29.97,NW,325,4.9,4.9,25,0.00,,BKN200,0.00,VWS V14.01,2013-03-29 23:47:00,
2013-03-29 16:52:00,73.6,35.6,29.97,West,278,4.0,5.8,25,0.00,,BKN200,0.00,VWS V14.01,2013-03-29 23:52:00,
2013-03-29 16:58:00,72.7,35.8,29.97,NW,312,3.6,3.6,26,0.00,,BKN200,0.00,VWS V14.01,2013-03-29 23:58:00,
2013-03-29 17:03:00,72.1,35.4,30.00,WSW,255,2.2,5.4,26,0.00,,BKN200,0.00,VWS V14.01,2013-03-30 00:03:00,
2013-03-29 17:09:00,72.1,34.4,30.00,West,271,6.3,6.3,25,0.00,,CLR,0.00,VWS V14.01,2013-03-30 00:09:00,
2013-03-29 17:14:00,71.6,34.9,30.00,West,265,5.4,5.4,26,0.00,,CLR,0.00,VWS V14.01,2013-03-30 00:14:00,
2013-03-29 17:20:00,70.1,34.6,30.00,WSW,249,3.1,5.4,27,0.00,,CLR,0.00,VWS V14.01,2013-03-30 00:20:00,
2013-03-29 17:25:00,69.1,34.6,30.00,NW,304,4.9,5.8,28,0.00,,CLR,0.00,VWS V14.01,2013-03-30 00:25:00,
2013-03-29 17:30:00,68.9,35.3,30.00,West,272,4.0,4.0,29,0.00,,CLR,0.00,VWS V14.01,2013-03-30 00:30:00,
2013-03-29 17:36:00,67.8,34.4,30.00,West,270,6.3,6.3,29,0.00,,CLR,0.00,VWS V14.01,2013-03-30 00:36:00,
2013-03-29 17:41:00,66.9,36.1,30.00,West,275,4.0,8.1,32,0.00,,CLR,0.00,VWS V14.01,2013-03-30 00:41:00,
2013-03-29 17:47:00,66.0,36.8,30.00,WNW,290,5.4,6.7,34,0.00,,CLR,0.00,VWS V14.01,2013-03-30 00:47:00,
2013-03-29 17:52:00,66.4,37.9,30.00,NW,318,4.0,5.8,35,0.00,,CLR,0.00,VWS V14.01,2013-03-30 00:52:00,
2013-03-29 17:57:00,65.3,38.4,30.00,NW,304,8.3,8.3,37,0.00,,CLR,0.00,VWS V14.01,2013-03-30 00:57:00,
2013-03-29 18:02:00,64.7,39.2,30.00,WNW,295,7.6,7.6,39,0.00,,CLR,0.00,VWS V14.01,2013-03-30 01:02:00,
2013-03-29 18:07:00,64.4,38.9,30.00,WNW,303,6.3,8.1,39,0.00,,CLR,0.00,VWS V14.01,2013-03-30 01:07:00,
2013-03-29 18:12:00,63.7,39.5,30.00,WNW,298,7.6,7.6,41,0.00,,CLR,0.00,VWS V14.01,2013-03-30 01:12:00,
2013-03-29 18:18:00,62.8,40.0,30.00,NW,306,5.4,7.6,43,0.00,,CLR,0.00,VWS V14.01,2013-03-30 01:18:00,
2013-03-29 18:23:00,62.8,40.5,30.00,WNW,298,6.3,7.6,44,0.00,,CLR,0.00,VWS V14.01,2013-03-30 01:23:00,
2013-03-29 18:29:00,62.2,41.8,30.00,WSW,250,3.1,7.2,47,0.00,,CLR,0.00,VWS V14.01,2013-03-30 01:29:00,
2013-03-29 18:34:00,62.2,41.8,30.00,NW,311,5.8,5.8,47,0.00,,CLR,0.00,VWS V14.01,2013-03-30 01:34:00,
2013-03-29 18:40:00,61.7,41.3,30.00,NW,308,5.8,6.3,47,0.00,,CLR,0.00,VWS V14.01,2013-03-30 01:40:00,
2013-03-29 18:46:00,61.0,41.7,30.00,WNW,290,3.6,8.1,49,0.00,,CLR,0.00,VWS V14.01,2013-03-30 01:46:00,
2013-03-29 18:51:00,61.0,42.7,30.00,West,275,6.3,8.1,51,0.00,,CLR,0.00,VWS V14.01,2013-03-30 01:51:00,
2013-03-29 18:57:00,60.1,43.4,30.00,West,276,8.3,8.3,54,0.00,,CLR,0.00,VWS V14.01,2013-03-30 01:57:00,
2013-03-29 19:03:00,59.9,44.2,30.00,NW,313,2.7,5.4,56,0.00,,CLR,0.00,VWS V14.01,2013-03-30 02:03:00,
2013-03-29 19:08:00,59.7,44.9,30.00,West,274,3.1,5.8,58,0.00,,CLR,0.00,VWS V14.01,2013-03-30 02:08:00,
2013-03-29 19:13:00,59.7,45.4,30.00,NNW,333,5.8,5.8,59,0.00,,CLR,0.00,VWS V14.01,2013-03-30 02:13:00,
2013-03-29 19:19:00,59.5,45.2,30.03,West,272,4.0,5.8,59,0.00,,CLR,0.00,VWS V14.01,2013-03-30 02:19:00,
2013-03-29 19:24:00,59.5,46.1,30.03,West,266,2.7,3.1,61,0.00,,CLR,0.00,VWS V14.01,2013-03-30 02:24:00,
2013-03-29 19:29:00,59.3,46.3,30.03,WNW,292,2.2,3.1,62,0.00,,CLR,0.00,VWS V14.01,2013-03-30 02:29:00,
2013-03-29 19:35:00,59.2,46.6,30.03,WSW,256,3.6,5.4,63,0.00,,CLR,0.00,VWS V14.01,2013-03-30 02:35:00,
2013-03-29 19:40:00,59.0,46.8,30.03,West,274,4.9,4.9,64,0.00,,FEW008,0.00,VWS V14.01,2013-03-30 02:40:00,
2013-03-29 19:46:00,59.2,47.0,30.03,WNW,287,0.0,0.0,64,0.00,,FEW008,0.00,VWS V14.01,2013-03-30 02:46:00,
2013-03-29 19:51:00,59.2,47.0,30.03,West,274,0.0,0.0,64,0.00,,FEW008,0.00,VWS V14.01,2013-03-30 02:51:00,
2013-03-29 19:57:00,59.2,47.0,30.03,WSW,253,0.0,0.0,64,0.00,,FEW008,0.00,VWS V14.01,2013-03-30 02:57:00,
2013-03-29 20:03:00,59.2,46.6,30.03,NNW,331,0.0,0.0,63,0.00,,FEW008,0.00,VWS V14.01,2013-03-30 03:03:00,
2013-03-29 20:08:00,59.2,46.6,30.03,WSW,249,0.0,2.2,63,0.00,,FEW008,0.00,VWS V14.01,2013-03-30 03:08:00,
2013-03-29 20:14:00,59.0,46.4,30.03,North,353,0.0,2.7,63,0.00,,FEW008,0.00,VWS V14.01,2013-03-30 03:14:00,
2013-03-29 20:19:00,59.0,46.4,30.06,North,357,0.0,0.0,63,0.00,,FEW008,0.00,VWS V14.01,2013-03-30 03:19:00,
2013-03-29 20:25:00,59.0,46.4,30.06,North,357,0.0,0.0,63,0.00,,FEW008,0.00,VWS V14.01,2013-03-30 03:25:00,
2013-03-29 20:31:00,59.0,46.4,30.06,North,357,0.0,0.0,63,0.00,,FEW008,0.00,VWS V14.01,2013-03-30 03:31:00,
2013-03-29 20:36:00,59.0,46.4,30.06,West,272,0.0,0.0,63,0.00,,SCT012,0.00,VWS V14.01,2013-03-30 03:36:00,
2013-03-29 20:42:00,59.0,46.4,30.06,West,272,0.0,0.0,63,0.00,,SCT012,0.00,VWS V14.01,2013-03-30 03:42:00,
2013-03-29 20:47:00,59.2,46.6,30.06,West,272,0.0,0.0,63,0.00,,SCT012,0.00,VWS V14.01,2013-03-30 03:47:00,
2013-03-29 20:53:00,59.0,46.4,30.06,North,349,0.0,0.0,63,0.00,,SCT012,0.00,VWS V14.01,2013-03-30 03:53:00,
2013-03-29 20:59:00,59.0,46.4,30.06,North,357,3.1,4.0,63,0.00,,SCT012,0.00,VWS V14.01,2013-03-30 03:59:00,
2013-03-29 21:00:00,59.0,46.4,30.06,North,353,5.8,5.8,63,0.00,,SCT012,0.00,VWS V14.01,2013-03-30 04:00:00,
2013-03-29 21:01:00,59.0,46.4,30.06,North,8,3.1,5.8,63,0.00,,SCT012,0.00,VWS V14.01,2013-03-30 04:01:00,
2013-03-29 21:02:00,59.0,46.4,30.06,North,357,2.7,4.0,63,0.00,,SCT012,0.00,VWS V14.01,2013-03-30 04:02:00,
2013-03-29 21:05:00,59.0,46.4,30.06,North,357,4.0,4.9,63,0.00,,SCT012,0.00,VWS V14.01,2013-03-30 04:05:00,
2013-03-29 21:12:00,59.0,46.8,30.06,ESE,117,0.0,2.7,64,0.00,,SCT012,0.00,VWS V14.01,2013-03-30 04:12:00,
2013-03-29 21:18:00,59.2,47.0,30.06,ESE,118,2.7,2.7,64,0.00,,SCT012,0.00,VWS V14.01,2013-03-30 04:18:00,
2013-03-29 21:23:00,59.2,47.0,30.06,ENE,62,2.7,4.0,64,0.00,,SCT012,0.00,VWS V14.01,2013-03-30 04:23:00,
2013-03-29 21:29:00,59.0,47.7,30.06,SE,128,5.4,6.7,66,0.00,,SCT012,0.00,VWS V14.01,2013-03-30 04:29:00,
2013-03-29 21:35:00,59.0,48.0,30.06,SE,129,3.1,3.1,67,0.00,,SCT012,0.00,VWS V14.01,2013-03-30 04:35:00,
2013-03-29 21:40:00,58.6,48.5,30.06,SE,143,5.4,7.6,69,0.00,,BKN010,0.00,VWS V14.01,2013-03-30 04:40:00,
2013-03-29 21:46:00,58.4,48.7,30.06,ESE,118,3.1,5.8,70,0.00,,BKN010,0.00,VWS V14.01,2013-03-30 04:46:00,
2013-03-29 21:51:00,58.1,48.7,30.06,ESE,107,0.0,0.0,71,0.00,,BKN010,0.00,VWS V14.01,2013-03-30 04:51:00,
2013-03-29 21:56:00,57.9,48.6,30.06,ESE,122,0.0,3.1,71,0.00,,BKN010,0.00,VWS V14.01,2013-03-30 04:56:00,
2013-03-29 22:02:00,57.7,48.8,30.06,ESE,102,0.0,3.1,72,0.00,,BKN010,0.00,VWS V14.01,2013-03-30 05:02:00,
2013-03-29 22:07:00,57.5,48.6,30.06,SE,132,0.0,4.0,72,0.00,,BKN010,0.00,VWS V14.01,2013-03-30 05:07:00,
2013-03-29 22:13:00,57.5,49.0,30.06,ESE,122,0.0,0.0,73,0.00,,BKN010,0.00,VWS V14.01,2013-03-30 05:13:00,
2013-03-29 22:18:00,57.5,49.0,30.06,ESE,119,2.2,4.9,73,0.00,,BKN010,0.00,VWS V14.01,2013-03-30 05:18:00,
2013-03-29 22:24:00,57.5,49.0,30.06,SE,145,0.0,0.0,73,0.00,,BKN010,0.00,VWS V14.01,2013-03-30 05:24:00,
2013-03-29 22:29:00,57.5,49.0,30.06,SSW,212,0.0,0.0,73,0.00,,BKN010,0.00,VWS V14.01,2013-03-30 05:29:00,
2013-03-29 22:35:00,57.5,49.0,30.06,SSW,205,4.0,4.0,73,0.00,,BKN010,0.00,VWS V14.01,2013-03-30 05:35:00,
2013-03-29 22:41:00,57.5,49.0,30.06,SSW,205,0.0,0.0,73,0.00,,BKN012,0.00,VWS V14.01,2013-03-30 05:41:00,
2013-03-29 22:46:00,57.5,49.0,30.06,SSW,205,0.0,0.0,73,0.00,,BKN012,0.00,VWS V14.01,2013-03-30 05:46:00,
2013-03-29 22:52:00,57.5,49.0,30.06,SSW,205,0.0,0.0,73,0.00,,BKN012,0.00,VWS V14.01,2013-03-30 05:52:00,
2013-03-29 22:58:00,57.4,48.8,30.06,SSW,205,0.0,0.0,73,0.00,,BKN012,0.00,VWS V14.01,2013-03-30 05:58:00,
2013-03-29 23:03:00,57.4,48.8,30.06,SSW,205,0.0,0.0,73,0.00,,BKN012,0.00,VWS V14.01,2013-03-30 06:03:00,
2013-03-29 23:09:00,57.5,49.0,30.06,SSW,205,0.0,0.0,73,0.00,,BKN012,0.00,VWS V14.01,2013-03-30 06:09:00,
2013-03-29 23:14:00,57.7,49.1,30.06,SSW,205,0.0,0.0,73,0.00,,BKN012,0.00,VWS V14.01,2013-03-30 06:14:00,
2013-03-29 23:19:00,57.7,49.1,30.06,SSW,205,0.0,3.1,73,0.00,,BKN012,0.00,VWS V14.01,2013-03-30 06:19:00,
2013-03-29 23:24:00,57.7,49.1,30.06,SSW,203,2.7,3.1,73,0.00,,BKN012,0.00,VWS V14.01,2013-03-30 06:24:00,
2013-03-29 23:30:00,57.7,49.1,30.06,WSW,243,3.6,3.6,73,0.00,,BKN012,0.00,VWS V14.01,2013-03-30 06:30:00,
2013-03-29 23:35:00,57.9,49.3,30.06,WSW,243,0.0,0.0,73,0.00,,BKN012,0.00,VWS V14.01,2013-03-30 06:35:00,
2013-03-29 23:41:00,57.9,49.3,30.06,WSW,243,0.0,0.0,73,0.00,,BKN012,0.00,VWS V14.01,2013-03-30 06:41:00,
2013-03-29 23:47:00,57.9,49.3,30.06,WSW,243,2.7,2.7,73,0.00,,BKN012,0.00,VWS V14.01,2013-03-30 06:47:00,
2013-03-29 23:53:00,57.9,49.3,30.06,WSW,243,0.0,0.0,73,0.00,,BKN012,0.00,VWS V14.01,2013-03-30 06:53:00,
2013-03-29 23:58:00,58.1,49.5,30.06,SSW,192,0.0,4.0,73,0.00,,BKN012,0.00,VWS V14.01,2013-03-30 06:58:00,